Main page
METAR-TAF:

METAR-TAF

Airports :

Castellón de la Plana, Spain

Castellón–Costa Azahar Airport

latitude: 40-12-35N, longitude: 0-04-11E, elevation: 360 m

Current weather observation

The report was made 22 minutes ago, at 03:30 UTC
Wind 4 kt from the South
Temperature 14°C
Humidity 72%
Pressure 1021 hPa
Visibility 10 km or more

METAR: LECH 200330Z AUTO 19004KT 9999 NCD 14/09 Q1021

Time: 05:52 (03:52 UTC)


TAF: missing

Weather observations and forecasts of more than 4000 airports (METAR and TAF reports).

The available stations are represented by yellow and red dots on the map.

Hover mouse over dot to see the name of the station.

Then click to see weather observations and forecasts.

To change the map : click on the green buttons with a black cross to zoom in, on the green button with a dash to zoom out, or on the green arrows for adjacent maps.


METAR-TAF: